Orbital Elements at Epoch 2459200.5 (2020-Dec-17.0) TDB
Reference: JPL 20 (heliocentric ecliptic J2000)
Element | Value | Uncertainty (1-sigma) | Units |
e | .1371225171153819 | 5.7796e-08 | |
a | 2.777888199794016 | 2.1032e-08 | au |
q | 2.396977177573144 | 1.6461e-07 | au |
i | 7.991378053140295 | 5.926e-06 | deg |
node | 70.74123825502171 | 3.5387e-05 | deg |
peri | 113.6246451075089 | 4.059e-05 | deg |
M | 329.6535863193442 | 2.0685e-05 | deg |
tp | 2459343.052698978130 (2021-May-08.55269898) | 9.7842e-05 | TDB |
period | 1691.104990928131 4.63 | 1.9205e-05 5.258e-08 | d yr |
n | .2128785627924974 | 2.4176e-09 | deg/d |
Q | 3.158799222014888 | 2.3916e-08 | au |
|
| | Orbit Determination Parameters
Additional Information
|